Regional Weather Roundup
Issued by NWS

Home | Current Version | Previous Version | Graphics & Text | Print | Product List | Glossary On
Versions: 1 2 3 4 5 6 7 8 9 10 11 12 13 14 15 16 17 18 19 20 21 22 23 24 25 26 27 28 29 30 31 32 33 34 35 36 37 38 39 40 41 42 43 44 45 46 47 48 49 50
000
ASUS43 KDTX 170010
RWRMI
MICHIGAN HOURLY REGIONAL WEATHER ROUNDUP
NATIONAL WEATHER SERVICE DETROIT/PONTIAC MI
800 PM EDT TUE SEP 16 2014

NOTE: "FAIR" INDICATES FEW OR NO CLOUDS BELOW 12,000 FEET WITH NO
SIGNIFICANT WEATHER AND/OR OBSTRUCTION TO VISIBILITY.

MIZ047>049-052>055-059>063-066>070-074>076-081>083-170100-
SOUTHEAST LOWER MICHIGAN

CITY           SKY/WX    TMP DP  RH WIND       PRES   REMARKS
ADRIAN         CLEAR     58  46  64 NW3       30.09S
6HR MIN TEMP:  58; 6HR MAX TEMP:  68;

ALMA           CLEAR     54  42  63 SW3       30.09S
ANN ARBOR      CLEAR     51  46  83 W3        30.08S
BAD AXE        CLEAR     54  49  83 CALM      30.07S
6HR MIN TEMP:  54; 6HR MAX TEMP:  64;

DETROIT CITY   PTCLDY    65  42  43 NW3       30.07F
6HR MIN TEMP:  65; 6HR MAX TEMP:  69;

DETROIT        PTCLDY    59  44  57 W5        30.08F
6HR MIN TEMP:  59; 6HR MAX TEMP:  67;

FLINT          CLEAR     57  47  69 W5        30.08S
6HR MIN TEMP:  57; 6HR MAX TEMP:  67;

GROSSE ILE     PTCLDY    61  50  67 S3        30.07S
HILLSDALE      CLEAR     55  48  76 CALM      30.09S
HOWELL         CLEAR     55  47  73 CALM      30.08S HAZE
6HR MIN TEMP:  55; 6HR MAX TEMP:  64;


CITY           SKY/WX    TMP DP  RH WIND       PRES   REMARKS
JACKSON        MOCLDY    55  47  74 CALM      30.09S
6HR MIN TEMP:  55; 6HR MAX TEMP:  66;

LAMBERTVILLE   PTCLDY    55  50  82 CALM      30.09S HAZE
LANSING        CLEAR     54  43  66 W8        30.10R
6HR MIN TEMP:  54; 6HR MAX TEMP:  65;

LAPEER         NOT AVBL
MASON          CLEAR     57  46  66 NW6       30.09R
MONROE         CLEAR     55  48  76 CALM      30.07S
MT. CLEMENS    PTCLDY    59  45  60 CALM      30.07R
6HR MIN TEMP:  59; 6HR MAX TEMP:  65;

PONTIAC        PTCLDY    59  43  55 CALM      30.07F
6HR MIN TEMP:  59; 6HR MAX TEMP:  65;

PORT HOPE        N/A     53  47  79 SW3       30.04S
6HR MIN TEMP:  53; 6HR MAX TEMP:  64;

PORT HURON     PTCLDY    54  48  82 SW3       30.08S
TRI CITIES     PTCLDY    57  45  64 W6        30.08S
6HR MIN TEMP:  57; 6HR MAX TEMP:  66;

YPSILANTI      CLEAR     62  46  55 NW3       30.08F
6HR MIN TEMP:  62; 6HR MAX TEMP:  71;

$$
MIZ043>046-050>051-056>058-064>065-071>073-077>080-170100-
SOUTHWEST LOWER MICHIGAN

CITY           SKY/WX    TMP DP  RH WIND       PRES   REMARKS
BATTLE CREEK   CLEAR     56  44  64 W9        30.11R
6HR MIN TEMP:  56; 6HR MAX TEMP:  66;

BENTON HARBOR  CLEAR     52  46  80 CALM      30.11F
6HR MIN TEMP:  52; 6HR MAX TEMP:  62;

BIG RAPIDS     CLEAR     53  45  74 CALM      30.09R
6HR MIN TEMP:  53; 6HR MAX TEMP:  62;

COLDWATER      PTCLDY    59  49  68 W7        30.10S
6HR MIN TEMP:  59; 6HR MAX TEMP:  68;

HOLLAND        CLEAR     53  44  71 CALM      30.12S
6HR MIN TEMP:  53; 6HR MAX TEMP:  64;

GRAND RAPIDS   CLEAR     54  43  66 W7        30.11S
6HR MIN TEMP:  54; 6HR MAX TEMP:  66;

KALAMAZOO      CLEAR     56  43  61 NW8       30.12S
6HR MIN TEMP:  56; 6HR MAX TEMP:  67;

MARSHALL       PTCLDY    57  45  64 W7        30.09S
MUSKEGON       CLEAR     52  42  69 SW5       30.11S
6HR MIN TEMP:  52; 6HR MAX TEMP:  62;

$$
MIZ016>042-170100-
NORTHERN LOWER MICHIGAN

CITY           SKY/WX    TMP DP  RH WIND       PRES   REMARKS
ALPENA         CLEAR     56  43  61 SW3       30.02F
6HR MIN TEMP:  56; 6HR MAX TEMP:  64;

BEAVER ISLAND  PTCLDY    58  49  71 SW13G22   30.00S
6HR MIN TEMP:  58; 6HR MAX TEMP:  62;

BELLAIRE       CLEAR     57  41  56 SW3       30.04F
6HR MIN TEMP:  57; 6HR MAX TEMP:  63;

CADILLAC       CLEAR     50  41  70 W6        30.07S
CHARLEVOIX     CLEAR     57  44  61 SW9       30.05S
6HR MIN TEMP:  57; 6HR MAX TEMP:  62;

FRANKFORT      CLEAR     58  45  62 SW3       30.06S
GAYLORD        CLEAR     51  41  68 SW6       30.04F
6HR MIN TEMP:  51; 6HR MAX TEMP:  60;

GRAYLING       CLEAR     54  42  62 W3        30.06S
6HR MIN TEMP:  54; 6HR MAX TEMP:  63;

HARBOR SPRINGS CLEAR     58  41  54 SW5       30.02S
HOUGHTON LAKE  CLEAR     56  43  61 W6        30.06S
6HR MIN TEMP:  56; 6HR MAX TEMP:  62;

MANISTEE       CLEAR     55  43  62 CALM      30.09S
OSCODA         CLEAR     55  45  69 SW3       30.03S
PELLSTON       PTCLDY    55  43  63 SW5       30.01F
6HR MIN TEMP:  55; 6HR MAX TEMP:  63;

TRAVERSE CITY  CLEAR     56  40  55 S3        30.04F
6HR MIN TEMP:  56; 6HR MAX TEMP:  64;

$$
MIZ007>008-015-170100-
EASTERN UPPER MICHIGAN

CITY           SKY/WX    TMP DP  RH WIND       PRES   REMARKS
KINROSS        CLOUDY    55  46  71 SW5       29.98S
6HR MIN TEMP:  55; 6HR MAX TEMP:  63;

MACKINAC ISLAN MOCLDY    57  46  67 SW13G20   29.99S
6HR MIN TEMP:  57; 6HR MAX TEMP:  60;

NEWBERRY       CLOUDY    55  48  75 SW12      29.97R
S. S. MARIE    CLOUDY    56  44  64 SW7       29.96F
6HR MIN TEMP:  56; 6HR MAX TEMP:  65;

$$
MIZ004>006-011>014-085-170100-
CENTRAL UPPER MICHIGAN

CITY           SKY/WX    TMP DP  RH WIND       PRES   REMARKS
MANISTIQUE     CLOUDY    58  53  85 SW9G16    29.98S
6HR MIN TEMP:  57; 6HR MAX TEMP:  62;

ESCANABA       CLEAR     61  45  55 SW5       29.98S
6HR MIN TEMP:  61; 6HR MAX TEMP:  68;

MENOMINEE      CLEAR     61  45  55 SW5       30.01S
6HR MIN TEMP:  61; 6HR MAX TEMP:  66;

SAWYER-GWINN   CLOUDY    57  46  67 NE8       30.00R
$$
MIZ001>003-009>011-084-170100-
WESTERN UPPER MICHIGAN

CITY           SKY/WX    TMP DP  RH WIND       PRES   REMARKS
IRON MOUNTAIN  CLEAR     60  43  53 SW3       29.99S
6HR MIN TEMP:  60; 6HR MAX TEMP:  68;

HOUGHTON       CLOUDY    53  44  71 NW6       29.97S
6HR MIN TEMP:  53; 6HR MAX TEMP:  62;

COPPER HARBOR    N/A     52  45  77 N6        29.98S
6HR MIN TEMP:  52; 6HR MAX TEMP:  62;

IRONWOOD       MOCLDY    61  45  55 SW7       29.97S
6HR MIN TEMP:  61; 6HR MAX TEMP:  66;

$$

ABBREVIATIONS USED IN REMARKS
   TC - TEMPERATURE IN CELSIUS
  WCI - WIND CHILL INDEX
   HX - HEAT INDEX
  VSB - VISIBILITY




USA.gov is the U.S. government's official web portal to all federal, state and local government web resources and services.